Date,TemperatureHighF,TemperatureAvgF,TemperatureLowF,DewpointHighF,DewpointAvgF,DewpointLowF,HumidityHigh,HumidityAvg,HumidityLow,PressureMaxIn,PressureMinIn,WindSpeedMaxMPH,WindSpeedAvgMPH,GustSpeedMaxMPH,PrecipitationSumIn
2013-1-1,56.0,42.0,35.0,42.0,37.0,31.0,98,85,50,0.00,40.00,3,2,5,0.04
2013-1-2,56.0,43.5,36.0,43.0,33.4,27.0,90,68,45,0.00,40.00,3,2,5,0.01
2013-1-3,54.0,44.7,36.0,47.0,38.1,29.0,97,79,60,0.00,40.00,9,4,16,0.31
2013-1-4,53.0,46.3,44.0,47.0,44.7,43.0,98,95,79,0.00,40.00,3,2,7,0.34
2013-1-5,49.0,44.8,41.0,45.0,42.8,40.0,98,93,81,0.00,40.00,5,2,10,0.15
2013-1-6,49.0,44.6,41.0,46.0,42.4,40.0,98,93,81,0.00,40.00,6,2,10,0.08
2013-1-7,49.0,47.9,44.0,48.0,46.7,43.0,98,96,92,0.00,40.00,7,4,11,0.27
2013-1-8,52.0,48.6,46.0,49.0,46.9,45.0,98,95,90,0.00,40.00,6,4,11,0.12
2013-1-9,49.0,43.2,35.0,47.0,40.3,34.0,97,90,69,0.00,40.00,8,4,18,0.73
2013-1-10,44.0,37.8,33.0,40.0,35.3,32.0,98,91,78,0.00,40.00,4,2,11,0.66
2013-1-11,45.0,37.6,33.0,41.0,35.6,32.0,97,93,84,0.00,40.00,4,2,8,0.19
2013-1-12,41.0,33.9,30.0,36.0,31.6,28.0,97,92,74,0.00,40.00,4,2,6,0.01
2013-1-13,40.0,30.5,26.0,31.0,27.8,25.0,96,89,66,0.00,40.00,3,2,7,0.01
2013-1-14,46.0,33.2,26.0,33.0,28.6,25.0,95,84,52,0.00,40.00,4,2,7,0.01
2013-1-15,49.0,36.8,29.0,37.0,31.6,27.0,94,83,55,0.00,40.00,5,3,8,0.01
2013-1-16,56.0,41.4,32.0,40.0,32.5,29.0,95,73,48,0.00,40.00,5,4,7,0.01
2013-1-17,67.0,42.9,35.0,47.0,35.8,30.0,97,78,29,0.00,40.00,3,2,7,0.00
2013-1-18,53.0,39.5,33.0,45.0,37.1,32.0,97,92,75,0.00,40.00,2,2,5,0.01
2013-1-19,47.0,36.8,32.0,41.0,35.5,31.0,98,96,79,0.00,40.00,5,2,7,0.01
2013-1-20,59.0,38.8,29.0,43.0,35.6,28.0,98,89,56,0.00,40.00,4,2,7,0.00
2013-1-21,63.0,41.8,30.0,37.0,32.0,27.0,92,71,26,0.00,40.00,3,2,5,0.01
2013-1-22,62.0,47.0,39.0,43.0,34.4,26.0,84,64,29,0.00,40.00,4,2,9,0.01
2013-1-23,47.0,43.9,40.0,44.0,41.5,39.0,98,92,76,0.00,40.00,3,2,8,0.87
2013-1-24,55.0,44.7,36.0,49.0,42.6,35.0,98,93,80,0.00,40.00,5,3,9,0.09
2013-1-25,50.0,46.6,42.0,49.0,45.4,41.0,98,96,92,0.00,40.00,5,4,10,0.36
2013-1-26,48.0,42.8,39.0,44.0,40.6,38.0,98,92,82,0.00,40.00,5,3,9,0.41
2013-1-27,43.0,40.2,37.0,42.0,39.1,36.0,97,96,91,0.00,40.00,4,2,8,1.05
2013-1-28,45.0,43.1,42.0,44.0,41.7,40.0,97,95,92,0.00,40.00,4,3,9,0.70
2013-1-29,46.0,43.4,41.0,44.0,42.2,40.0,98,96,92,0.00,40.00,4,2,8,0.33
2013-1-30,51.0,42.9,38.0,48.0,41.7,37.0,98,97,89,0.00,40.00,3,2,6,0.01
2013-1-31,52.0,45.0,40.0,47.0,42.8,39.0,98,93,79,0.00,40.00,4,3,7,0.01
2013-2-1,59.0,45.0,36.0,47.0,41.6,35.0,98,90,64,0.00,40.00,4,3,7,0.01
2013-2-2,56.0,45.7,40.0,46.0,41.7,37.0,96,86,62,0.00,40.00,4,2,8,0.01
2013-2-3,51.0,46.0,42.0,44.0,42.9,41.0,97,89,76,0.00,40.00,3,2,4,0.01
2013-2-4,48.0,43.3,38.0,45.0,41.1,37.0,98,92,83,0.00,40.00,6,3,12,0.00
2013-2-5,50.0,46.5,44.0,47.0,43.5,39.0,96,89,80,0.00,40.00,7,4,12,0.25
2013-2-6,50.0,45.1,38.0,45.0,41.2,36.0,96,87,69,0.00,40.00,9,5,15,0.53
2013-2-7,40.0,37.3,35.0,38.0,36.3,34.0,97,96,94,0.00,40.00,4,2,9,1.08
2013-2-8,47.0,38.9,33.0,39.0,35.7,32.0,98,90,69,0.00,40.00,4,2,11,0.01
2013-2-9,51.0,40.8,35.0,41.0,36.9,34.0,97,87,59,0.00,40.00,4,2,7,0.01
2013-2-10,47.0,43.5,40.0,41.0,39.2,37.0,98,86,71,0.00,40.00,4,3,8,0.00
2013-2-11,52.0,44.2,40.0,43.0,37.9,34.0,97,79,56,0.00,40.00,5,3,9,0.01
2013-2-12,53.0,45.9,43.0,50.0,44.6,42.0,98,96,86,0.00,40.00,3,2,5,0.11
2013-2-13,54.0,47.0,44.0,48.0,44.9,43.0,98,93,78,0.00,40.00,4,2,6,0.01
2013-2-14,56.0,46.5,39.0,47.0,43.5,38.0,98,91,69,0.00,40.00,6,3,10,0.01
2013-2-15,67.0,49.2,42.0,48.0,42.4,39.0,97,81,39,0.00,40.00,4,3,7,0.00
2013-2-16,51.0,45.6,42.0,45.0,42.8,41.0,97,90,69,0.00,40.00,4,2,7,0.05
2013-2-17,49.0,41.6,37.0,41.0,37.3,35.0,97,86,63,0.00,40.00,5,3,9,0.04
2013-2-18,47.0,38.9,34.0,39.0,35.8,33.0,96,89,69,0.00,40.00,6,3,10,0.04
2013-2-19,49.0,39.4,34.0,40.0,36.5,33.0,97,90,72,0.00,40.00,6,2,11,0.64
2013-2-20,47.0,40.8,36.0,42.0,38.6,35.0,97,92,73,0.00,40.00,4,2,7,0.29
2013-2-21,47.0,41.8,37.0,42.0,38.6,36.0,97,89,77,0.00,40.00,4,3,7,0.25
2013-2-22,47.0,43.7,40.0,44.0,41.6,38.0,97,92,85,0.00,40.00,9,5,18,0.43
2013-2-23,49.0,40.7,37.0,42.0,36.4,34.0,96,85,61,0.00,40.00,5,2,9,0.34
2013-2-24,54.0,40.6,32.0,42.0,35.3,31.0,97,84,44,0.00,40.00,5,3,9,0.01
2013-2-25,47.0,42.7,36.0,44.0,38.7,35.0,97,86,74,0.00,40.00,7,3,13,0.46
2013-2-26,51.0,38.5,31.0,39.0,34.4,30.0,96,86,49,0.00,40.00,3,2,5,0.06
2013-2-27,54.0,46.2,40.0,49.0,41.7,37.0,96,85,60,0.00,40.00,7,3,12,0.21
2013-2-28,51.0,50.3,50.0,50.0,49.2,48.0,98,96,93,0.00,40.00,7,5,14,0.46
2013-3-1,57.0,50.3,47.0,51.0,48.4,46.0,98,94,78,0.00,40.00,4,2,7,0.03
2013-3-2,51.0,47.7,43.0,49.0,46.1,42.0,98,95,84,0.00,40.00,5,2,12,0.03
2013-3-3,51.0,42.6,37.0,42.0,36.9,31.0,97,81,55,0.00,40.00,6,4,12,0.03
2013-3-4,54.0,41.8,33.0,43.0,35.6,30.0,92,79,64,0.00,40.00,6,3,12,0.00
2013-3-5,44.0,42.0,40.0,42.0,39.3,31.0,96,90,64,0.00,40.00,6,2,11,1.47
2013-3-6,47.0,42.1,39.0,43.0,39.8,37.0,95,91,85,0.00,40.00,7,4,14,0.51
2013-3-7,54.0,42.9,35.0,41.0,38.0,34.0,97,84,49,0.00,40.00,4,2,9,0.10
2013-3-8,53.0,40.9,31.0,43.0,37.3,30.0,97,88,57,0.00,40.00,5,2,11,0.00
2013-3-9,59.0,45.6,37.0,45.0,40.9,36.0,97,85,56,0.00,40.00,5,3,9,0.00
2013-3-10,61.0,47.3,35.0,47.0,40.4,33.0,98,81,41,0.00,40.00,5,3,8,0.01
2013-3-11,59.0,49.2,45.0,52.0,46.2,44.0,98,91,63,0.00,40.00,6,3,9,0.01
2013-3-12,55.0,48.2,44.0,51.0,45.9,43.0,98,93,75,0.00,40.00,3,2,6,0.01
2013-3-13,60.0,48.0,44.0,50.0,45.5,43.0,98,92,65,0.00,40.00,4,2,6,0.00
2013-3-14,60.0,48.1,43.0,46.0,44.1,42.0,98,88,60,0.00,40.00,5,3,10,0.00
2013-3-15,60.0,50.7,46.0,51.0,47.2,45.0,97,88,71,0.00,40.00,3,2,6,0.00
2013-3-16,48.0,45.9,42.0,46.0,44.6,41.0,98,96,89,0.00,40.00,6,3,12,0.26
2013-3-17,51.0,42.0,37.0,41.0,36.2,33.0,96,81,56,0.00,40.00,4,2,7,0.08
2013-3-18,53.0,42.5,35.0,43.0,36.6,32.0,94,81,50,0.00,40.00,6,3,9,0.00
2013-3-19,57.0,48.9,44.0,49.0,43.1,37.0,93,81,55,0.00,40.00,8,4,16,0.38
2013-3-20,53.0,47.6,40.0,49.0,43.2,34.0,97,85,67,0.00,40.00,11,6,21,0.71
2013-3-21,50.0,40.5,36.0,39.0,35.3,33.0,96,83,59,0.00,40.00,4,2,8,0.02
2013-3-22,48.0,40.0,35.0,38.0,34.7,31.0,97,83,54,0.00,40.00,6,3,10,0.06
2013-3-23,51.0,39.6,31.0,35.0,32.6,30.0,96,78,49,0.00,40.00,6,3,10,0.01
2013-3-24,55.0,43.1,35.0,38.0,35.4,32.0,94,76,45,0.00,40.00,4,2,7,0.00
2013-3-25,51.0,43.5,37.0,43.0,39.8,35.0,96,87,69,0.00,40.00,3,2,6,0.00
2013-3-26,60.0,48.0,43.0,45.0,42.3,40.0,96,82,49,0.00,40.00,3,2,6,0.00
2013-3-27,56.0,49.3,45.0,51.0,46.0,43.0,96,88,76,0.00,40.00,5,3,9,0.06
2013-3-28,59.0,52.5,48.0,49.0,47.6,46.0,96,84,65,0.00,40.00,4,3,7,0.00
2013-3-29,67.0,53.6,47.0,54.0,48.6,46.0,98,85,50,0.00,40.00,6,3,9,0.01
2013-3-30,72.0,55.0,45.0,55.0,46.4,-99.9,98,81,46,0.00,40.00,5,3,10,0.01
2013-3-31,56.0,52.8,50.0,51.0,49.5,47.0,97,89,77,0.00,40.00,4,2,6,0.00
2013-4-1,52.0,49.4,47.0,51.0,48.3,46.0,98,97,93,0.00,40.00,4,2,6,0.03
2013-4-2,62.0,50.2,46.0,53.0,47.7,45.0,98,92,70,0.00,40.00,3,2,6,0.02
2013-4-3,60.0,49.8,45.0,53.0,47.2,44.0,98,92,76,0.00,40.00,3,2,6,0.02
2013-4-4,54.0,50.7,48.0,52.0,49.7,47.0,98,97,93,0.00,40.00,9,5,18,1.12
2013-4-5,53.0,50.8,49.0,50.0,48.9,48.0,97,93,84,0.00,40.00,9,7,17,0.70
2013-4-6,53.0,50.6,49.0,50.0,48.4,46.0,97,92,82,0.00,40.00,10,7,17,0.37
2013-4-7,52.0,46.0,40.0,50.0,43.9,39.0,96,93,78,0.00,40.00,11,5,21,0.77
2013-4-8,52.0,43.9,38.0,44.0,40.0,37.0,97,87,64,0.00,40.00,4,2,9,0.34
2013-4-9,64.0,49.2,40.0,47.0,41.7,37.0,97,78,48,0.00,40.00,3,2,6,0.01
2013-4-10,52.0,48.1,44.0,50.0,45.9,37.0,97,93,72,0.00,40.00,5,3,8,0.09
2013-4-11,53.0,46.3,39.0,46.0,41.6,38.0,97,84,61,0.00,40.00,7,4,12,0.01
2013-4-12,56.0,44.9,37.0,45.0,41.6,36.0,97,89,64,0.00,40.00,5,3,9,0.07
2013-4-13,50.0,44.6,39.0,45.0,37.4,34.0,97,77,54,0.00,40.00,5,3,8,0.14
2013-4-14,49.0,41.7,36.0,41.0,37.5,34.0,94,85,68,0.00,40.00,5,2,7,0.05
2013-4-15,48.0,42.0,37.0,40.0,37.9,36.0,96,86,67,0.00,40.00,4,2,9,0.45
2013-4-16,54.0,45.9,39.0,45.0,39.9,38.0,96,81,57,0.00,40.00,5,2,9,0.02
2013-4-17,57.0,47.2,42.0,44.0,40.9,38.0,92,80,60,0.00,40.00,5,2,10,0.01
2013-4-18,59.0,49.2,45.0,47.0,43.5,40.0,96,82,51,0.00,40.00,4,2,8,0.01
2013-4-19,51.0,48.5,47.0,50.0,47.5,46.0,98,97,96,0.00,40.00,5,3,10,0.24
2013-4-20,57.0,49.1,45.0,49.0,45.8,43.0,98,90,69,0.00,40.00,5,3,10,0.11
2013-4-21,64.0,50.2,44.0,47.0,43.6,40.0,95,79,43,0.00,40.00,5,3,8,0.01
2013-4-22,63.0,51.4,44.0,46.0,43.2,35.0,96,76,51,0.00,40.00,7,4,15,0.00
2013-4-23,62.0,51.2,42.0,44.0,38.2,34.0,91,63,37,0.00,40.00,8,5,15,0.00
2013-4-24,80.0,54.8,40.0,44.0,39.3,25.0,97,63,15,0.00,40.00,7,4,14,0.00
2013-4-25,66.0,52.5,43.0,48.0,44.3,41.0,97,76,49,0.00,40.00,7,4,12,0.00
2013-4-26,71.0,51.7,44.0,53.0,46.2,43.0,98,85,53,0.00,40.00,4,3,7,0.00
2013-4-27,65.0,50.1,43.0,48.0,44.2,42.0,97,83,50,0.00,40.00,4,2,7,0.00
2013-4-28,62.0,51.3,46.0,50.0,46.1,43.0,95,83,62,0.00,40.00,5,3,8,0.00
2013-4-29,55.0,50.3,47.0,49.0,46.4,37.0,97,88,52,0.00,40.00,6,3,12,0.08
2013-4-30,53.0,47.0,38.0,37.0,35.2,31.0,81,65,47,0.00,40.00,7,5,16,0.01
2013-5-1,57.0,47.4,37.0,43.0,37.0,34.0,89,69,45,0.00,40.00,7,5,16,0.00
2013-5-2,68.0,53.7,44.0,43.0,41.1,37.0,94,66,34,0.00,40.00,9,5,15,0.00
2013-5-3,62.0,50.9,44.0,48.0,44.2,42.0,96,79,51,0.00,40.00,7,5,14,0.00
2013-5-4,81.0,61.3,44.0,49.0,42.6,30.0,97,59,22,0.00,40.00,6,4,11,0.00
2013-5-5,79.0,64.4,53.0,48.0,39.0,30.0,81,44,21,0.00,40.00,7,4,16,0.00
2013-5-6,67.0,56.3,50.0,51.0,48.9,46.0,97,78,56,0.00,40.00,5,3,8,0.00
2013-5-7,54.0,50.7,49.0,49.0,48.2,47.0,98,92,83,0.00,40.00,5,3,10,0.00
2013-5-8,62.0,53.5,49.0,50.0,47.8,46.0,95,82,61,0.00,40.00,4,2,7,0.00
2013-5-9,64.0,51.1,48.0,53.0,48.0,46.0,100,89,67,0.00,40.00,6,3,10,0.00
2013-5-10,62.0,49.5,47.0,52.0,44.4,-99.9,100,91,70,0.00,40.00,3,2,7,0.00
2013-5-11,76.0,57.6,47.0,57.0,48.7,-99.9,100,79,41,0.00,40.00,4,2,7,0.00
2013-5-12,65.0,57.6,53.0,55.0,53.2,51.0,100,86,65,0.00,40.00,5,4,10,0.00
2013-5-13,59.0,52.9,48.0,54.0,52.0,48.0,100,97,81,0.00,40.00,5,3,9,0.04
2013-5-14,62.0,52.3,47.0,49.0,47.2,44.0,100,85,56,0.00,40.00,5,3,9,0.01
2013-5-15,61.0,51.9,46.0,51.0,46.7,44.0,97,84,57,0.00,40.00,5,2,8,0.02
2013-5-16,58.0,48.3,50.0,52.0,33.7,-99.9,99,93,74,0.00,40.00,5,3,9,0.12
2013-5-17,60.0,52.9,47.0,52.0,45.2,-99.9,100,87,62,0.00,40.00,4,2,7,0.04
2013-5-18,56.0,51.1,47.0,52.0,48.4,46.0,100,91,78,0.00,40.00,6,3,11,0.09
2013-5-19,59.0,52.2,49.0,50.0,48.5,45.0,100,88,64,0.00,40.00,7,4,14,0.17
2013-5-20,62.0,52.1,45.0,51.0,47.6,45.0,100,86,65,0.00,40.00,5,3,12,0.01
2013-5-21,50.0,46.6,42.0,48.0,44.4,39.0,99,92,76,0.00,40.00,7,4,13,0.48
2013-5-22,47.0,43.8,42.0,46.0,42.7,40.0,99,97,93,0.00,40.00,6,4,10,1.44
2013-5-23,55.0,48.4,42.0,48.0,45.5,42.0,100,91,68,0.00,40.00,6,3,10,0.22
2013-5-24,57.0,49.8,46.0,47.0,45.5,44.0,100,86,68,0.00,40.00,4,3,7,0.18
2013-5-25,59.0,50.3,42.0,51.0,47.2,42.0,100,90,68,0.00,40.00,5,3,9,0.10
2013-5-26,57.0,52.0,49.0,51.0,49.9,49.0,100,93,76,0.00,40.00,6,4,11,0.33
2013-5-27,57.0,52.7,50.0,55.0,51.7,49.0,100,97,87,0.00,40.00,9,6,15,0.61
2013-5-28,61.0,53.0,49.0,53.0,50.4,49.0,100,91,64,0.00,40.00,8,4,12,0.23
2013-5-29,56.0,52.4,49.0,53.0,50.9,48.0,100,94,83,0.00,40.00,9,4,16,0.11
2013-5-30,62.0,52.8,46.0,50.0,46.8,43.0,100,82,51,0.00,40.00,4,2,7,0.02
2013-5-31,62.0,52.8,43.0,51.0,47.2,43.0,100,83,59,0.00,40.00,7,4,13,0.00
2013-6-1,69.0,56.4,48.0,55.0,49.8,43.0,100,82,47,0.00,40.00,5,3,8,0.00
2013-6-2,59.0,53.4,51.0,55.0,51.7,48.0,100,94,79,0.00,40.00,7,4,15,0.10
2013-6-3,59.0,53.3,48.0,52.0,49.2,47.0,98,86,72,0.00,40.00,8,6,17,0.01
2013-6-4,61.0,53.6,47.0,53.0,49.9,47.0,100,88,62,0.00,40.00,8,6,16,0.00
2013-6-5,60.0,53.2,50.0,54.0,52.0,50.0,100,96,80,0.00,40.00,8,6,15,0.01
2013-6-6,59.0,52.2,49.0,53.0,50.4,49.0,100,94,75,0.00,40.00,8,5,15,0.01
2013-6-7,71.0,56.4,50.0,53.0,49.5,36.0,100,82,28,0.00,40.00,7,4,13,0.01
2013-6-8,61.0,53.7,49.0,52.0,49.8,48.0,100,88,66,0.00,40.00,9,6,17,0.00
2013-6-9,58.0,52.8,48.0,51.0,47.5,45.0,95,83,65,0.00,40.00,9,7,18,0.00
2013-6-10,59.0,53.4,47.0,48.0,45.6,43.0,94,76,56,0.00,40.00,7,6,15,0.00
2013-6-11,62.0,53.9,48.0,50.0,47.3,45.0,98,80,55,0.00,40.00,5,3,9,0.00
2013-6-12,60.0,51.8,44.0,51.0,47.6,44.0,100,87,65,0.00,40.00,5,2,9,0.00
2013-6-13,61.0,52.9,47.0,51.0,49.3,46.0,100,88,67,0.00,40.00,4,2,7,0.04
2013-6-14,64.0,53.9,43.0,51.0,48.8,43.0,100,85,63,0.00,40.00,8,4,15,0.01
2013-6-15,63.0,54.4,49.0,55.0,51.5,48.0,100,91,72,0.00,40.00,4,2,6,0.00
2013-6-16,62.0,53.5,47.0,52.0,49.9,46.0,99,88,70,0.00,40.00,6,2,9,0.00
2013-6-17,63.0,53.8,48.0,56.0,51.7,48.0,100,93,66,0.00,40.00,7,3,14,0.04
2013-6-18,61.0,54.3,49.0,53.0,50.5,48.0,99,88,68,0.00,40.00,6,4,11,0.12
2013-6-19,60.0,54.4,50.0,54.0,51.7,50.0,100,91,72,0.00,40.00,5,3,8,0.35
2013-6-20,64.0,54.8,51.0,51.0,50.4,49.0,96,86,62,0.00,40.00,4,2,7,0.03
2013-6-21,68.0,66.0,63.0,52.0,51.8,51.0,68,60,56,0.00,40.00,5,4,9,0.00
2013-6-22,70.0,62.1,49.0,58.0,54.9,49.0,100,78,56,0.00,40.00,4,3,8,0.01
2013-6-23,65.0,58.6,53.0,62.0,58.0,53.0,100,98,90,0.00,40.00,6,3,12,0.50
2013-6-24,62.0,55.8,52.0,56.0,53.4,51.0,100,92,79,0.00,40.00,7,4,13,0.37
2013-6-25,63.0,57.9,54.0,58.0,55.2,53.0,100,91,71,0.00,40.00,8,6,14,0.45
2013-6-26,69.0,62.1,56.0,62.0,59.2,56.0,100,91,77,0.00,40.00,5,3,9,0.16
2013-6-27,69.0,62.0,56.0,61.0,58.8,56.0,100,90,77,0.00,40.00,4,2,9,0.01
2013-6-28,79.0,65.5,56.0,64.0,58.2,54.0,100,80,46,0.00,40.00,4,2,7,0.00
2013-6-29,84.0,66.7,56.0,62.0,58.4,55.0,99,78,46,0.00,40.00,6,2,10,0.00
2013-6-30,76.0,64.5,58.0,64.0,58.8,57.0,100,84,57,0.00,40.00,5,3,9,0.00
2013-7-1,69.0,61.4,56.0,61.0,58.5,56.0,100,91,73,0.00,40.00,6,4,11,0.00
2013-7-2,65.0,59.1,56.0,61.0,57.5,56.0,100,94,80,0.00,40.00,8,5,16,0.01
2013-7-3,65.0,58.9,54.0,56.0,54.5,53.0,99,86,68,0.00,40.00,9,6,16,0.01
2013-7-4,63.0,58.0,52.0,54.0,52.3,50.0,97,82,66,0.00,40.00,8,6,18,0.00
2013-7-5,63.0,57.4,51.0,54.0,51.6,50.0,97,82,64,0.00,40.00,8,6,17,0.00
2013-7-6,64.0,56.1,50.0,55.0,51.5,49.0,97,85,66,0.00,40.00,8,5,17,0.00
2013-7-7,63.0,57.7,54.0,54.0,53.0,52.0,94,85,71,0.00,40.00,8,6,16,0.00
2013-7-8,64.0,56.2,50.0,54.0,52.0,49.0,97,87,68,0.00,40.00,9,5,18,0.00
2013-7-9,60.0,53.0,50.0,56.0,52.4,50.0,100,98,84,0.00,40.00,7,5,14,0.01
2013-7-10,60.0,53.9,50.0,54.0,48.0,-99.9,100,86,72,0.00,40.00,8,6,18,0.02
2013-7-11,63.0,54.2,47.0,50.0,48.2,46.0,98,82,56,0.00,40.00,8,4,16,0.01
2013-7-12,62.0,54.6,46.0,52.0,48.9,46.0,99,83,58,0.00,40.00,7,5,14,0.00
2013-7-13,63.0,54.4,46.0,52.0,49.2,46.0,100,84,60,0.00,40.00,8,5,17,0.00
2013-7-14,61.0,53.0,48.0,52.0,50.1,48.0,100,90,73,0.00,40.00,8,6,17,0.00
2013-7-15,60.0,52.9,48.0,52.0,50.3,48.0,100,92,76,0.00,40.00,9,6,15,0.00
2013-7-16,57.0,54.5,52.0,55.0,52.4,50.0,96,92,87,0.00,40.00,3,2,6,0.00
2013-7-17,66.0,56.8,50.0,54.0,51.6,49.0,96,84,64,0.00,40.00,6,3,10,0.00
2013-7-18,62.0,56.3,50.0,54.0,51.4,49.0,99,84,69,0.00,40.00,8,5,16,0.00
2013-7-19,60.0,54.6,51.0,52.0,51.1,50.0,97,88,74,0.00,40.00,9,6,16,0.00
2013-7-20,61.0,53.8,51.0,54.0,50.0,-99.9,99,89,74,0.00,40.00,8,6,18,0.00
2013-7-21,61.0,53.8,49.0,54.0,51.9,49.0,100,94,77,0.00,40.00,7,6,15,0.00
2013-7-22,62.0,53.1,49.0,58.0,51.7,49.0,100,95,76,0.00,40.00,10,6,16,0.01
2013-7-23,59.0,50.5,46.0,54.0,49.5,46.0,100,97,78,0.00,40.00,6,4,13,0.01
2013-7-24,52.0,48.6,47.0,52.0,48.6,47.0,100,100,99,0.00,40.00,6,4,12,0.00
2013-7-25,56.0,49.0,46.0,53.0,48.1,46.0,100,97,81,0.00,40.00,8,5,16,0.01
2013-7-26,59.0,50.8,47.0,51.0,49.1,47.0,100,94,76,0.00,40.00,9,6,17,0.01
2013-7-27,62.0,54.3,49.0,52.0,50.9,49.0,100,89,71,0.00,40.00,8,6,17,0.00
2013-7-28,63.0,55.8,50.0,53.0,51.3,49.0,98,86,70,0.00,40.00,8,5,16,0.00
2013-7-29,66.0,55.7,48.0,53.0,51.4,48.0,100,87,62,0.00,40.00,7,4,12,0.00
2013-7-30,62.0,56.7,53.0,54.0,52.9,52.0,99,88,71,0.00,40.00,5,3,10,0.00
2013-7-31,60.0,56.8,54.0,57.0,54.7,53.0,99,93,85,0.00,40.00,3,2,6,0.00
2013-8-1,65.0,58.6,55.0,58.0,55.5,54.0,100,90,75,0.00,40.00,4,2,7,0.03
2013-8-2,68.0,59.4,54.0,56.0,54.6,53.0,100,85,63,0.00,40.00,8,4,13,0.01
2013-8-3,66.0,56.5,52.0,57.0,53.9,52.0,100,92,72,0.00,40.00,9,5,16,0.00
2013-8-4,56.0,53.1,51.0,55.0,52.9,51.0,100,99,92,0.00,40.00,8,5,14,0.01
2013-8-5,58.0,52.7,50.0,57.0,51.8,50.0,100,97,87,0.00,40.00,8,5,14,0.02
2013-8-6,66.0,54.2,48.0,55.0,51.2,48.0,100,91,67,0.00,40.00,4,3,9,0.00
2013-8-7,57.0,52.6,50.0,56.0,52.4,50.0,100,99,95,0.00,40.00,3,2,6,0.05
2013-8-8,67.0,56.4,52.0,60.0,54.8,52.0,100,95,73,0.00,40.00,6,3,11,0.03
2013-8-9,65.0,56.1,52.0,57.0,54.5,52.0,100,95,71,0.00,40.00,8,4,15,0.06
2013-8-10,62.0,57.3,54.0,58.0,55.8,54.0,100,95,82,0.00,40.00,3,2,6,0.05
2013-8-11,68.0,58.7,54.0,56.0,54.7,54.0,100,88,63,0.00,40.00,5,2,9,0.00
2013-8-12,68.0,57.6,50.0,56.0,53.7,50.0,100,88,62,0.00,40.00,6,3,10,0.00
2013-8-13,75.0,59.0,49.0,58.0,51.4,-99.9,100,80,54,0.00,40.00,5,2,8,0.00
2013-8-14,74.0,62.3,52.0,63.0,54.3,-99.9,100,82,55,0.00,40.00,5,3,11,0.00
2013-8-15,72.0,60.1,60.0,65.0,51.9,-99.9,99,88,77,0.00,40.00,4,2,7,0.00
2013-8-16,73.0,62.5,58.0,61.0,54.8,-99.9,99,83,54,0.00,40.00,4,2,7,0.00
2013-8-17,71.0,60.8,55.0,61.0,55.9,-99.9,99,87,68,0.00,40.00,4,2,10,0.00
2013-8-18,71.0,61.4,54.0,60.0,57.3,54.0,100,88,63,0.00,40.00,7,4,14,0.00
2013-8-19,67.0,56.9,54.0,60.0,51.5,-99.9,100,92,60,0.00,40.00,9,5,15,0.00
2013-8-20,65.0,57.8,52.0,56.0,52.9,51.0,100,85,61,0.00,40.00,7,5,15,0.00
2013-8-21,69.0,56.8,48.0,56.0,51.6,48.0,100,85,56,0.00,40.00,7,4,12,0.00
2013-8-22,62.0,55.7,52.0,57.0,54.6,52.0,100,96,83,0.00,40.00,3,2,6,0.00
2013-8-23,68.0,59.0,54.0,59.0,56.4,54.0,100,91,69,0.00,40.00,3,2,6,0.01
2013-8-24,67.0,58.7,53.0,60.0,54.1,-99.9,100,88,69,0.00,40.00,5,3,10,0.01
2013-8-25,58.0,54.4,50.0,58.0,54.3,50.0,100,99,96,0.00,40.00,3,2,5,0.08
2013-8-26,72.0,60.7,50.0,59.0,52.8,49.0,100,79,44,0.00,40.00,9,4,14,0.01
2013-8-27,73.0,63.8,59.0,60.0,57.5,55.0,91,81,59,0.00,40.00,4,2,6,0.00
2013-8-28,72.0,65.6,60.0,62.0,59.8,58.0,97,82,68,0.00,40.00,5,3,9,0.01
2013-8-29,71.0,63.8,60.0,66.0,62.1,59.0,100,95,76,0.00,40.00,8,4,15,0.23
2013-8-30,74.0,64.4,56.0,67.0,61.9,56.0,100,92,71,0.00,40.00,4,3,9,0.11
2013-8-31,61.0,55.9,53.0,59.0,54.2,-99.9,100,97,90,0.00,40.00,5,3,9,0.02
2013-9-1,73.0,62.4,53.0,63.0,57.4,53.0,100,86,55,0.00,40.00,7,3,11,0.00
2013-9-2,72.0,64.6,58.0,62.0,59.4,53.0,100,84,63,0.00,40.00,6,4,11,0.03
2013-9-3,70.0,63.0,57.0,60.0,56.5,53.0,98,80,63,0.00,40.00,6,3,10,0.03
2013-9-4,71.0,61.6,56.0,61.0,58.5,55.0,100,90,66,0.00,40.00,4,2,7,0.00
2013-9-5,65.0,59.4,57.0,60.0,58.2,57.0,100,96,81,0.00,40.00,3,1,5,0.06
2013-9-6,72.0,62.3,58.0,62.0,58.5,57.0,100,89,64,0.00,40.00,6,3,12,0.06
2013-9-7,69.0,59.7,53.0,60.0,55.9,-99.9,100,90,72,0.00,40.00,7,4,12,0.01
2013-9-8,67.0,59.8,56.0,61.0,58.4,56.0,100,95,78,0.00,40.00,8,5,13,0.00
2013-9-9,64.0,56.3,53.0,60.0,55.8,53.0,100,98,85,0.00,40.00,7,5,15,0.00
2013-9-10,69.0,56.4,52.0,60.0,54.8,52.0,100,95,68,0.00,40.00,7,4,12,0.00
2013-9-11,67.0,58.8,53.0,61.0,56.6,53.0,100,93,76,0.00,40.00,5,3,9,0.00
2013-9-12,64.0,59.6,57.0,60.0,57.9,57.0,100,94,82,0.00,40.00,3,2,4,0.01
2013-9-13,62.0,58.5,55.0,58.0,56.9,55.0,100,95,86,0.00,40.00,6,3,10,0.02
2013-9-14,61.0,56.7,55.0,60.0,55.6,-99.9,100,98,96,0.00,40.00,4,3,6,0.05
2013-9-15,60.0,57.4,55.0,57.0,55.6,54.0,100,94,85,0.00,40.00,5,3,10,0.05
2013-9-16,70.0,61.0,56.0,59.0,56.0,53.0,100,84,64,0.00,40.00,4,2,7,0.01
2013-9-17,65.0,59.0,54.0,58.0,56.0,54.0,100,90,73,0.00,40.00,5,3,10,0.02
2013-9-18,56.0,53.7,53.0,54.0,53.1,52.0,100,98,89,0.00,40.00,3,2,7,0.10
2013-9-19,68.0,58.8,49.0,56.0,51.3,46.0,99,78,57,0.00,40.00,3,2,7,0.06
2013-9-20,60.0,56.5,52.0,60.0,53.5,46.0,99,90,67,0.00,40.00,6,3,10,0.37
2013-9-21,63.0,56.2,53.0,57.0,52.9,-99.9,100,92,76,0.00,40.00,5,3,11,0.99
2013-9-22,60.0,57.1,55.0,57.0,53.9,51.0,95,89,72,0.00,40.00,9,6,18,0.08
2013-9-23,66.0,58.6,55.0,56.0,55.1,54.0,95,88,67,0.00,40.00,5,3,10,0.01
2013-9-24,60.0,55.2,49.0,55.0,52.4,49.0,100,91,69,0.00,40.00,5,3,10,0.43
2013-9-25,59.0,51.3,46.0,51.0,47.6,46.0,99,88,66,0.00,40.00,4,2,7,0.67
2013-9-26,63.0,51.4,43.0,53.0,47.6,43.0,99,88,60,0.00,40.00,5,2,9,0.01
2013-9-27,60.0,52.1,44.0,58.0,50.3,44.0,100,94,70,0.00,40.00,6,3,10,0.20
2013-9-28,60.0,57.0,52.0,58.0,55.0,-99.9,100,95,87,0.00,40.00,12,8,22,1.47
2013-9-29,60.0,56.0,53.0,60.0,55.1,52.0,100,97,93,0.00,40.00,12,8,23,4.21
2013-9-30,61.0,55.3,52.0,55.0,50.5,48.0,99,84,68,0.00,40.00,6,5,14,1.57
2013-10-1,59.0,51.5,46.0,49.0,46.5,45.0,96,84,69,0.00,40.00,3,2,6,0.12
2013-10-2,58.0,48.0,40.0,51.0,45.2,40.0,99,91,62,0.00,40.00,5,2,8,0.11
2013-10-3,60.0,49.6,43.0,52.0,46.1,43.0,100,88,64,0.00,40.00,5,2,7,0.01
2013-10-4,69.0,51.5,42.0,51.0,45.8,41.0,98,83,47,0.00,40.00,6,4,9,0.01
2013-10-5,74.0,57.4,46.0,51.0,43.9,37.0,95,66,31,0.00,40.00,4,3,6,0.01
2013-10-6,70.0,57.6,50.0,54.0,46.3,39.0,93,69,32,0.00,40.00,7,3,11,0.00
2013-10-7,61.0,55.4,49.0,53.0,51.1,46.0,99,86,60,0.00,40.00,4,2,8,0.23
2013-10-8,54.0,49.9,46.0,51.0,48.6,45.0,99,96,91,0.00,40.00,3,1,6,0.09
2013-10-9,58.0,48.7,41.0,49.0,45.6,40.0,99,90,70,0.00,40.00,4,3,10,0.07
2013-10-10,63.0,52.1,43.0,51.0,46.9,42.0,98,84,51,0.00,40.00,4,2,9,0.00
2013-10-11,58.0,51.4,47.0,48.0,45.1,41.0,94,81,56,0.00,40.00,5,3,10,0.00
2013-10-12,58.0,49.1,46.0,52.0,45.7,-99.9,99,91,78,0.00,40.00,4,2,7,0.13
2013-10-13,58.0,48.9,41.0,50.0,46.4,41.0,99,91,71,0.00,40.00,6,3,11,0.01
2013-10-14,62.0,51.2,43.0,50.0,46.2,42.0,97,84,62,0.00,40.00,5,3,11,0.01
2013-10-15,66.0,52.4,44.0,47.0,44.6,42.0,94,77,48,0.00,40.00,6,4,11,0.00
2013-10-16,62.0,51.9,44.0,52.0,45.8,41.0,99,81,55,0.00,40.00,6,3,10,0.00
2013-10-17,59.0,51.3,47.0,52.0,49.5,47.0,100,94,73,0.00,40.00,7,4,11,0.00
2013-10-18,69.0,52.9,42.0,55.0,48.4,42.0,100,86,59,0.00,40.00,5,3,9,0.00
2013-10-19,64.0,52.4,47.0,53.0,47.9,-99.9,99,88,65,0.00,40.00,6,3,10,0.00
2013-10-20,56.0,49.0,45.0,55.0,48.6,45.0,100,98,88,0.00,40.00,7,4,11,0.00
2013-10-21,60.0,49.2,43.0,56.0,48.3,43.0,100,97,84,0.00,40.00,4,2,8,0.01
2013-10-22,52.0,49.0,47.0,52.0,49.0,47.0,100,100,99,0.00,40.00,2,1,4,0.02
2013-10-23,50.0,47.5,45.0,50.0,47.5,45.0,100,100,99,0.00,40.00,3,2,5,0.02
2013-10-24,51.0,48.8,47.0,51.0,48.8,47.0,100,100,100,0.00,40.00,4,2,8,0.02
2013-10-25,51.0,49.8,49.0,51.0,49.8,49.0,100,100,100,0.00,40.00,3,2,6,0.02
2013-10-26,53.0,48.3,46.0,51.0,46.4,-99.9,100,96,87,0.00,40.00,6,4,11,0.01
2013-10-27,52.0,48.8,46.0,51.0,47.4,46.0,99,95,86,0.00,40.00,4,2,9,0.04
2013-10-28,57.0,47.5,43.0,48.0,42.6,-99.9,100,87,67,0.00,40.00,4,2,8,0.04
2013-10-29,58.0,45.6,37.0,45.0,39.7,35.0,97,81,57,0.00,40.00,3,2,5,0.00
2013-10-30,58.0,46.0,38.0,45.0,40.1,37.0,97,82,49,0.00,40.00,2,1,4,0.00
2013-10-31,59.0,52.1,47.0,56.0,48.0,40.0,100,86,68,0.00,40.00,3,2,5,0.01
2013-11-1,66.0,51.7,45.0,60.0,50.1,45.0,100,95,74,0.00,40.00,4,3,6,0.01
2013-11-2,56.0,49.6,47.0,51.0,45.3,-99.9,100,88,70,0.00,40.00,8,3,13,0.34
2013-11-3,53.0,45.8,41.0,48.0,43.5,40.0,98,92,78,0.00,40.00,2,1,7,0.12
2013-11-4,50.0,44.9,39.0,49.0,44.2,39.0,99,98,94,0.00,40.00,4,2,6,0.06
2013-11-5,56.0,52.1,49.0,54.0,51.2,48.0,100,96,92,0.00,40.00,5,4,9,0.35
2013-11-6,57.0,53.7,52.0,56.0,53.6,52.0,100,99,96,0.00,40.00,4,2,6,0.15
2013-11-7,53.0,50.4,47.0,53.0,49.9,46.0,100,99,96,0.00,40.00,8,4,14,0.62
2013-11-8,55.0,46.6,42.0,50.0,45.3,42.0,100,95,74,0.00,40.00,4,2,7,0.02
2013-11-9,59.0,46.4,40.0,48.0,42.6,-99.9,99,90,65,0.00,40.00,2,1,5,0.00
2013-11-10,58.0,50.2,46.0,51.0,47.3,44.0,99,90,66,0.00,40.00,4,2,6,0.00
2013-11-11,63.0,52.3,45.0,56.0,49.1,44.0,100,89,61,0.00,40.00,5,2,8,0.01
2013-11-12,58.0,54.2,50.0,55.0,52.1,45.0,100,93,61,0.00,40.00,6,3,10,0.06
2013-11-13,58.0,49.4,43.0,53.0,48.6,43.0,100,97,81,0.00,40.00,6,3,9,0.03
2013-11-14,50.0,45.1,41.0,47.0,44.3,41.0,100,97,86,0.00,40.00,3,1,6,0.04
2013-11-15,51.0,45.5,42.0,48.0,44.2,42.0,100,95,81,0.00,40.00,5,2,9,0.09
2013-11-16,53.0,47.5,45.0,49.0,45.0,-99.9,100,94,84,0.00,40.00,6,3,10,0.54
2013-11-17,54.0,48.2,45.0,49.0,44.6,41.0,99,88,73,0.00,40.00,5,3,7,0.14
2013-11-18,54.0,49.3,44.0,52.0,46.2,41.0,96,89,79,0.00,40.00,9,5,15,0.88
2013-11-19,54.0,49.9,42.0,54.0,48.8,37.0,100,96,82,0.00,40.00,8,6,15,1.60
2013-11-20,46.0,39.4,34.0,37.0,32.5,29.0,85,76,61,0.00,40.00,5,4,13,0.01
2013-11-21,48.0,37.2,30.0,29.0,23.4,20.0,83,60,36,0.00,40.00,5,4,9,0.00
2013-11-22,57.0,41.8,29.0,32.0,27.2,23.0,88,58,38,0.00,40.00,4,3,8,0.00
2013-11-23,67.0,51.5,41.0,40.0,29.8,-99.9,65,47,29,0.00,40.00,4,3,9,0.00
2013-11-24,62.0,48.9,37.0,38.0,34.2,29.0,82,59,35,0.00,40.00,3,2,6,0.00
2013-11-25,57.0,46.0,38.0,44.0,37.9,32.0,94,74,49,0.00,40.00,3,2,5,0.00
2013-11-26,58.0,46.6,39.0,44.0,38.9,34.0,92,76,49,0.00,40.00,3,2,5,0.00
2013-11-27,60.0,48.3,38.0,45.0,40.5,36.0,94,76,50,0.00,40.00,3,2,5,0.00
2013-11-28,60.0,46.4,39.0,49.0,42.5,38.0,97,87,65,0.00,40.00,6,3,8,0.00
2013-11-29,53.0,44.1,37.0,46.0,41.7,36.0,98,93,71,0.00,40.00,5,2,9,0.00
2013-11-30,53.0,45.3,40.0,49.0,42.9,-99.9,99,94,80,0.00,40.00,3,2,6,0.01
2013-12-1,53.0,51.0,48.0,53.0,50.8,45.0,100,99,83,0.00,40.00,7,5,13,0.30
2013-12-2,51.0,45.0,35.0,51.0,43.8,34.0,100,96,82,0.00,40.00,8,3,16,1.26
2013-12-3,44.0,35.9,31.0,42.0,35.2,31.0,99,97,86,0.00,40.00,3,1,9,0.20
2013-12-4,38.0,30.3,26.0,31.0,23.3,19.0,98,76,51,0.00,40.00,4,3,6,0.01
2013-12-5,43.0,30.2,22.0,28.0,23.1,20.0,94,76,48,0.00,40.00,3,2,4,0.01
2013-12-6,42.0,35.4,30.0,40.0,33.0,25.0,98,91,72,0.00,40.00,6,3,10,0.60
2013-12-7,32.0,26.6,21.0,28.0,20.6,-99.9,93,82,53,0.00,40.00,4,3,7,0.01
2013-12-8,37.0,26.0,19.0,23.0,18.3,14.0,92,74,43,0.00,40.00,4,3,8,0.01
2013-12-9,42.0,30.3,22.0,25.0,20.7,17.0,86,69,44,0.00,40.00,5,2,9,0.01
2013-12-10,44.0,34.2,27.0,33.0,28.3,24.0,94,80,62,0.00,40.00,3,2,6,0.00
2013-12-11,53.0,38.3,31.0,36.0,31.3,28.0,94,77,50,0.00,40.00,3,2,6,0.00
2013-12-12,47.0,40.9,34.0,42.0,36.9,30.0,99,86,73,0.00,40.00,6,3,11,0.38
2013-12-13,54.0,46.0,42.0,50.0,45.0,42.0,99,96,80,0.00,40.00,3,2,5,0.24
2013-12-14,46.0,40.0,37.0,46.0,38.9,-99.9,99,98,98,0.00,40.00,3,1,5,0.01
2013-12-15,53.0,41.3,35.0,48.0,40.5,35.0,99,96,82,0.00,40.00,4,2,7,0.01
2013-12-16,54.0,42.0,35.0,47.0,40.1,35.0,99,93,70,0.00,40.00,5,4,7,0.00
2013-12-17,49.0,42.0,35.0,42.0,39.2,34.0,99,90,76,0.00,40.00,5,3,10,0.01
2013-12-18,44.0,40.3,37.0,44.0,39.9,35.0,100,98,83,0.00,40.00,6,2,11,0.02
2013-12-19,42.0,35.9,31.0,35.0,31.0,29.0,96,83,62,0.00,40.00,5,2,10,0.01
2013-12-20,48.0,39.3,31.0,48.0,35.4,28.0,100,87,60,0.00,40.00,4,3,9,0.72
2013-12-21,51.0,46.5,44.0,49.0,45.2,-99.9,100,98,89,0.00,40.00,4,2,6,1.00
2013-12-22,56.0,46.9,44.0,53.0,46.4,44.0,100,98,86,0.00,40.00,3,1,5,0.01
2013-12-23,49.0,46.4,43.0,49.0,46.4,43.0,100,100,100,0.00,40.00,3,1,6,0.05
2013-12-24,50.0,41.8,36.0,47.0,41.4,36.0,100,98,91,0.00,40.00,5,4,7,0.04
2013-12-25,48.0,39.2,31.0,44.0,38.1,31.0,100,96,79,0.00,40.00,5,3,7,0.01
2013-12-26,56.0,42.1,35.0,44.0,39.2,34.0,99,90,60,0.00,40.00,3,1,5,0.01
2013-12-27,47.0,43.7,40.0,45.0,40.7,38.0,99,90,72,0.00,40.00,3,2,7,0.01
2013-12-28,47.0,40.4,35.0,44.0,37.9,-99.9,100,93,80,0.00,40.00,5,4,9,0.00
2013-12-29,53.0,39.9,32.0,38.0,33.8,31.0,97,81,53,0.00,40.00,4,4,7,0.00
2013-12-30,49.0,43.3,37.0,41.0,35.9,31.0,93,75,57,0.00,40.00,4,2,6,0.00
2013-12-31,54.0,43.2,38.0,47.0,40.9,36.0,99,92,73,0.00,40.00,4,2,7,0.00
2014-1-1,51.0,42.2,34.0,45.0,39.7,33.0,99,91,71,0.00,40.00,3,2,5,0.01
2014-1-2,55.0,46.3,40.0,45.0,40.5,37.0,97,81,67,0.00,40.00,2,1,5,0.01